Location: Molalla
(45.1473°N, 122.5770°W)
Time: 07:46:00
(UTC-08:00)

BEESAT - Visible Passes

Search period start: 14 December 2019 00:00
Search period end: 24 December 2019 00:00
Orbit: 701 x 709 km, 98.6° (Epoch: 14 December)

Date Brightness Start Highest point End Pass type
(mag) Time Alt. Az. Time Alt. Az. Time Alt. Az.
14 Dec ? 04:11:27 10° SE 04:12:40 17° SE 04:12:40 17° SE visible
14 Dec ? 05:50:04 10° SSW 05:51:36 17° SW 05:51:36 17° SW visible
14 Dec ? 17:46:29 10° NNE 17:51:17 74° ESE 17:56:04 10° S visible
14 Dec ? 19:25:41 10° NNW 19:28:26 15° WNW 19:31:11 10° W visible
15 Dec ? 04:54:30 10° S 04:56:33 26° S 04:56:33 26° S visible
15 Dec ? 18:30:05 10° N 18:34:37 44° WNW 18:39:09 10° SW visible
16 Dec ? 04:00:51 10° SE 04:01:31 14° SE 04:01:31 14° SE visible
16 Dec ? 05:38:43 10° SSW 05:40:27 19° SW 05:40:27 19° SW visible
16 Dec ? 17:35:38 10° NNE 17:40:23 58° ESE 17:45:05 10° S visible
16 Dec ? 19:14:22 10° NNW 19:17:42 19° WNW 19:21:00 10° WSW visible
17 Dec ? 04:43:37 10° SSE 04:45:25 23° SSE 04:45:25 23° SSE visible
17 Dec ? 18:19:06 10° N 18:23:47 56° WNW 18:28:27 10° SSW visible
18 Dec ? 03:50:20 10° ESE 03:50:23 10° ESE 03:50:23 10° ESE visible
18 Dec ? 05:27:30 10° SSW 05:29:19 21° SSW 05:29:19 21° SSW visible
18 Dec ? 17:24:51 10° NNE 17:29:27 45° E 17:34:02 10° S visible
18 Dec ? 19:03:10 10° NNW 19:06:56 23° WNW 19:10:40 10° WSW visible
19 Dec ? 04:32:47 10° SSE 04:34:17 20° SSE 04:34:17 20° SSE visible
19 Dec ? 06:13:02 10° SW 06:13:13 11° WSW 06:13:13 11° WSW visible
19 Dec ? 18:08:09 10° N 18:12:56 71° WNW 18:17:41 10° SSW visible
19 Dec ? 19:49:20 10° NW 19:49:48 10° NW 19:50:15 10° WNW visible
20 Dec ? 05:16:22 10° S 05:18:11 22° SSW 05:18:11 22° SSW visible
20 Dec ? 17:14:07 10° NNE 17:18:30 35° E 17:22:53 10° SSE visible
20 Dec ? 18:52:02 10° N 18:56:08 29° WNW 19:00:14 10° SW visible
21 Dec ? 04:22:02 10° SE 04:23:10 17° SE 04:23:10 17° SE visible
21 Dec ? 06:01:20 10° SW 06:02:06 13° SW 06:02:06 13° SW visible
21 Dec ? 17:57:14 10° NNE 18:02:04 90° WNW 18:06:51 10° SSW visible
21 Dec ? 19:37:00 10° NNW 19:39:04 13° WNW 19:41:10 10° W visible
22 Dec ? 05:05:20 10° S 05:07:05 22° S 05:07:05 22° S visible
22 Dec ? 17:03:26 10° NE 17:07:33 28° E 17:11:38 10° SSE visible
22 Dec ? 18:40:58 10° N 18:45:20 36° WNW 18:49:41 10° SW visible
23 Dec ? 04:11:22 10° SE 04:12:03 14° SE 04:12:03 14° SE visible
23 Dec ? 05:49:51 10° SSW 05:50:59 15° SW 05:50:59 15° SW visible
23 Dec ? 17:46:22 10° NNE 17:51:10 72° ESE 17:55:57 10° S visible
23 Dec ? 19:25:30 10° NNW 19:28:21 16° WNW 19:31:12 10° W visible
